Weather History for Manhattan, KS

Change the Weather History Date:

Wednesday, November 21, 2012

  Actual Average Record
Temperature  
Mean Temperature 54 °F 40 °F  
Max Temperature 75 °F 52 °F 75 °F (2012)
Min Temperature 32 °F 28 °F 10 °F (2000)
Degree Days  
Heating Degree Days 11 25  
Month to date heating degree days 311 430  
Since 1 July heating degree days 728 829  
Cooling Degree Days 0 0  
Month to date cooling degree days 3 0  
Year to date cooling degree days 1788 1361  
Growing Degree Days 2 (Base 50)    
Moisture  
Dew Point 40 °F    
Average Humidity 67    
Maximum Humidity 96    
Minimum Humidity 38    
Precipitation  
Precipitation 0.00 in 0.04 in 0.04 in (2013)
Month to date precipitation 0.74 1.26  
Year to date precipitation 21.46 31.19  
Sea Level Pressure  
Sea Level Pressure 30.07 in    
Wind  
Wind Speed 12 mph (SSW)    
Max Wind Speed 30 mph    
Max Gust Speed 39 mph    
Visibility 10 miles    
Events      
T = Trace of Precipitation, MM = Missing Value Source: NWS Daily Summary

Daily Weather History Graph

Daily Weather History Graph

Search for Another Location

Airport:

Trip Planner

Search our weather history database for the weather conditions in past years. The results will help you decide how hot, cold, wet, or windy it might be!

Date:

Astronomy

Nov. 21, 2012 Rise Set
Actual Time 7:17 AM CST 5:08 PM CST
Civil Twilight 6:48 AM CST 5:37 PM CST
Nautical Twilight 6:15 AM CST 6:09 PM CST
Astronomical Twilight 5:43 AM CST 6:41 PM CST
Moon 1:22 PM CST (11/21) 12:40 AM CST (11/21)
Length of Visible Light 10h 49m
Length of Day
9h 50m
First Quarter, 62% of the Moon is Illuminated
Nov 21
First Quarter
Nov 28
Full
Dec 6
Last Quarter
Dec 13
New
Dec 19
First Quarter

Hourly Weather History & Observations

Time (CST) Temp. Dew Point Humidity Pressure Visibility Wind Dir Wind Speed Gust Speed Precip Events Conditions
12:52 AM 34.0 °F 32.0 °F 92% 30.19 in 10.0 mi Calm Calm - N/A   Clear
1:52 AM 36.0 °F 32.0 °F 86% 30.19 in 10.0 mi Calm Calm - N/A   Clear
2:52 AM 32.0 °F 28.9 °F 88% 30.18 in 10.0 mi Calm Calm - N/A   Clear
3:52 AM 33.1 °F 32.0 °F 96% 30.17 in 10.0 mi Calm Calm - N/A   Clear
4:52 AM 35.1 °F 30.9 °F 85% 30.17 in 10.0 mi Calm Calm - N/A   Clear
5:52 AM 37.0 °F 33.1 °F 86% 30.17 in 10.0 mi Calm Calm - N/A   Clear
6:52 AM 36.0 °F 33.1 °F 89% 30.18 in 10.0 mi Calm Calm - N/A   Clear
7:52 AM 39.9 °F 36.0 °F 86% 30.19 in 10.0 mi Calm Calm - N/A   Clear
8:52 AM 53.1 °F 41.0 °F 64% 30.19 in 10.0 mi SW 3.5 mph - N/A   Clear
9:52 AM 62.6 °F 41.0 °F 45% 30.16 in 10.0 mi SW 13.8 mph - N/A   Clear
10:52 AM 66.9 °F 43.0 °F 42% 30.15 in 10.0 mi SSW 20.7 mph 28.8 mph N/A   Clear
11:52 AM 71.1 °F 46.0 °F 41% 30.11 in 10.0 mi SSW 24.2 mph 32.2 mph N/A   Clear
12:52 PM 72.0 °F 46.9 °F 41% 30.07 in 10.0 mi SSW 21.9 mph 33.4 mph N/A   Clear
1:52 PM 73.9 °F 48.0 °F 40% 30.03 in 10.0 mi SSW 21.9 mph 29.9 mph N/A   Clear
2:52 PM 73.9 °F 46.0 °F 37% 30.00 in 10.0 mi SSW 26.5 mph 36.8 mph N/A   Clear
3:52 PM 73.0 °F 46.0 °F 38% 29.98 in 10.0 mi SSW 24.2 mph 33.4 mph N/A   Clear
4:52 PM 71.1 °F 46.9 °F 42% 29.97 in 10.0 mi South 15.0 mph 26.5 mph N/A   Clear
5:52 PM 68.0 °F 46.0 °F 45% 29.96 in 10.0 mi South 13.8 mph 25.3 mph N/A   Clear
6:52 PM 66.9 °F 45.0 °F 45% 29.96 in 10.0 mi South 15.0 mph 21.9 mph N/A   Clear
7:52 PM 66.0 °F 44.1 °F 45% 29.95 in 10.0 mi SSW 15.0 mph 23.0 mph N/A   Clear
8:52 PM 66.9 °F 43.0 °F 42% 29.92 in 10.0 mi SSW 24.2 mph 33.4 mph N/A   Clear
9:52 PM 66.0 °F 42.1 °F 42% 29.91 in 10.0 mi SSW 16.1 mph 27.6 mph N/A   Clear
10:52 PM 63.0 °F 43.0 °F 48% 29.90 in 10.0 mi SSW 16.1 mph 21.9 mph N/A   Clear
11:52 PM 64.0 °F 44.1 °F 48% 29.87 in 10.0 mi SSW 16.1 mph - N/A   Clear